星链-34483 (STARLINK-34483)

导读

STARLINK-34483是美国太空探索技术公司(SpaceX)于2025年6月13日发射的星链系列卫星,隶属于星链(Starlink)互联网星座项目。星链项目旨在为全球用户提供高速低延迟的卫星互联网服务,该卫星入轨后将与其他星链卫星协同工作,进一步完善全球卫星互联网覆盖网络。

Basic Information
目录编号:
64367
目录名称:
STARLINK-34483
国际标识:
2025-126Z
轨道中心:
EARTH
卫星名称:
星链-34483
卫星全名:
星链-34483 (STARLINK-34483)
卫星状态:
在轨 (已飞行365 天)
发射日期:
2025-06-13 UTC
国别 :
美国 (US)
星等 :
--
Orbit Information
数据来源 国际轨道数据 AOE轨道数据
星历时间 2026-06-13T16:22:29+0800
14小时前
查看轨道信息
2026-06-12T17:00:00+0800
1天前
查看轨道信息
半长轴 6950.158km 6950.183km
偏心率 0.0003739 0.0003834
轨道倾角 69.999° 69.999°
近地点辐角 260.394° 262.141°
升交点赤经 153.141° 155.596°
平近点角 99.680° 245.965°
近地点 569.422km 569.381km
远地点 574.62km 574.711km
周期 96.106分钟 96.107分钟
每日圈数 14.983415 14.983334
Detailed Information
固有亮度:
5
最大亮度:
2.5
卫星平台:
Starlink V1.0
覆盖范围:
全球
运营商:
太空探索技术公司
运营商所在国:
美国
制造商(研发单位):
太空探索技术公司
制造商所在国:
美国
使用方式:
暂无
Satellite Introduction
Starlink 计划是 SpaceX 推出的全球卫星互联网项目,通过发射低轨道卫星,为全球尤其是偏远地区提供高速、低延迟的互联网服务。自 2019 年起,Starlink 已部署数千颗卫星,旨在缩小全球数字鸿沟,推动互联网普及。该项目还为军事、航空等行业提供通信支持,带来广泛经济效益。
2D Orbit Map
3D Orbit Map
Orbit Altitude Analysis Chart
Orbit Inclination Analysis Chart
Orbit Comprehensive Analysis Chart
View Comprehensive Chart